This is the latest recevied weather packets stored in our database for station/object IU1JVO-13. If no packets are shown the sender has not sent any weather packets the latest 10 day(s).
| Time | Temp. | Humidity | Pressure | Rain* | Wind** | Luminosity | Snow |
|---|---|---|---|---|---|---|---|
| 1788492986 | 19.44° C | 49% | 1022.6 hPa | 0 mm | - | - | - |
| 1788492385 | 19.44° C | 52% | 1022.7 hPa | 0 mm | - | - | - |
| 1788491786 | 19.44° C | 49% | 1022.6 hPa | 0 mm | - | - | - |
| 1788491187 | 18.89° C | 53% | 1022.7 hPa | 0 mm | - | - | - |
| 1788490588 | 18.89° C | 54% | 1022.8 hPa | 0 mm | - | - | - |
| 1788489988 | 19.44° C | 53% | 1022.7 hPa | 0 mm | - | - | - |
| 1788489385 | 19.44° C | 53% | 1023.1 hPa | 0 mm | - | - | - |
| 1788488786 | 19.44° C | 52% | 1023.1 hPa | 0 mm | - | - | - |
| 1788487587 | 20° C | 52% | 1023 hPa | 0 mm | - | - | - |
| 1788486986 | 20° C | 50% | 1023.1 hPa | 0 mm | - | - | - |
| 1788485186 | 20.56° C | 50% | 1023.4 hPa | 0 mm | - | - | - |
| 1788484586 | 21.11° C | 48% | 1023.5 hPa | 0 mm | - | - | - |
| 1788483984 | 21.11° C | 47% | 1023.7 hPa | 0 mm | - | - | - |
| 1788481581 | 21.11° C | 47% | 1023.7 hPa | 0 mm | - | - | - |
| 1788480983 | 21.11° C | 49% | 1023.7 hPa | 0 mm | - | - | - |
| 1788479780 | 21.67° C | 47% | 1023.7 hPa | 0 mm | - | - | - |
| 1788478578 | 22.78° C | 42% | 1023.8 hPa | 0 mm | - | - | - |
| 1788474972 | 22.78° C | 42% | 1023.8 hPa | 0 mm | - | - | - |
| 1788470768 | 23.89° C | 43% | 1023.9 hPa | 0 mm | - | - | - |
| 1788470168 | 23.89° C | 44% | 1023.9 hPa | 0 mm | - | - | - |
| 1788468970 | 23.89° C | 49% | 1023.8 hPa | 0 mm | - | - | - |
| 1788468370 | 23.89° C | 47% | 1023.9 hPa | 0 mm | - | - | - |
| 1788467852 | 24.44° C | 47% | 1023.9 hPa | 0 mm | - | - | - |
| 1788467167 | 24.44° C | 48% | 1023.9 hPa | 0 mm | - | - | - |
| 1788465967 | 24.44° C | 48% | 1023.9 hPa | 0 mm | - | - | - |
* Rain latest hour (hover to see other rain measurements)
** Current wind speed in m/s (hover to see current wind gust speed)